Weather observations for the past three days for
Albany International Airport
Metric (Imperial)
Date Time (edt) Wind (kph) Vis. (km) Weather Sky Cond. Temperature (ºC) Relative Humidity Wind Chill (°C) Heat Index (°C) Pressure Precipitation (cm)
Air Dwpt 6 hour altimeter (cm) sea level (mb) 1 hr 3 hr 6 hr
Max. Min.
15 05:51 S 7 16.09 A Few Clouds FEW080 FEW120 FEW250 23.9 21.1 84% 24 75.9 1011.4
15 04:51 S 11 16.09 Partly Cloudy SCT080 24.4 20.6 79% 25 75.87 1011.3
15 03:51 S 17 16.09 Partly Cloudy SCT080 25 20.6 77% 26 75.87 1011.2
15 02:51 S 11 16.09 Overcast OVC085 25 19.4 71% 26 75.9 1011.5
15 01:51 S 9 16.09 Mostly Cloudy BKN100 24.4 17.8 30 22.8 67% 25 75.9 1011.7
15 00:51 S 6 16.09 Overcast OVC110 24.4 16.7 62% 25 75.95 1012.3
14 23:51 Calm 16.09 Mostly Cloudy BKN130 23.3 17.2 69% 75.95 1012.3
14 22:51 S 6 16.09 Mostly Cloudy BKN250 23.3 17.8 71% 75.97 1012.7
14 21:51 Calm 16.09 Mostly Cloudy FEW075 FEW200 BKN250 24.4 17.2 64% 25 75.97 1012.8
14 20:51 Calm 16.09 Mostly Cloudy SCT075 SCT200 BKN250 27.2 17.2 54% 28 76 1013.1
14 19:51 Calm 16.09 Mostly Cloudy SCT075 BKN200 BKN250 30 15.6 32.8 29.4 42% 30 76 1013.0
14 18:51 NW 11 16.09 Mostly Cloudy BKN070 BKN200 BKN250 30 16.1 43% 30 76.02 1013.3
14 17:51 NW 13 16.09 Mostly Cloudy FEW065 SCT200 BKN250 31.7 16.1 39% 32 76 1013.1
14 16:51 NW 17 16.09 Mostly Cloudy FEW070 SCT200 BKN250 32.2 14.4 34% 32 76.02 1013.2
14 15:51 NW 13 16.09 Mostly Cloudy FEW070 SCT200 BKN250 32.2 12.2 29% 31 76.07 1013.9
14 14:51 W 20 G 31 16.09 A Few Clouds FEW070 FEW250 32.8 13.3 31% 32 76.12 1014.6
14 13:51 NW 11 16.09 A Few Clouds FEW060 FEW250 31.7 15 31.7 22.8 36% 31 76.17 1015.3
14 12:51 Calm 16.09 A Few Clouds FEW050 FEW250 30 16.7 45% 30 76.25 1016.3
14 11:51 NE 7 16.09 A Few Clouds FEW044 FEW250 29.4 17.2 48% 30 76.3 1017.1
14 10:51 Vrbl 6 16.09 A Few Clouds FEW041 FEW250 27.8 17.2 53% 28 76.35 1017.5
14 09:51 SW 9 16.09 A Few Clouds FEW038 FEW250 26.1 16.7 56% 27 76.38 1018.1
14 08:51 Calm 16.09 A Few Clouds FEW250 23.9 16.7 64% 25 76.4 1018.4
14 07:51 Calm 16.09 A Few Clouds FEW032 FEW250 22.8 16.1 22.8 17.2 66% 76.4 1018.4
14 06:51 Calm 16.09 A Few Clouds FEW040 20 16.7 81% 76.38 1018.2
14 05:51 Calm 16.09 A Few Clouds FEW250 17.8 15 84% 76.4 1018.5
14 04:51 Calm 16.09 A Few Clouds FEW250 20.6 15.6 73% 76.4 1018.3
14 03:51 SW 6 16.09 A Few Clouds FEW250 19.4 15.6 79% 76.38 1018.0
14 02:51 W 6 16.09 Fair CLR 21.1 16.1 73% 76.35 1017.8
14 01:51 Calm 16.09 Fair CLR 21.7 16.7 28.3 21.1 73% 76.4 1018.2
14 00:51 W 7 16.09 Fair CLR 22.2 16.1 68% 76.4 1018.4
13 23:51 S 6 16.09 Fair CLR 22.8 16.1 66% 76.4 1018.4
13 22:51 W 13 16.09 Fair CLR 24.4 16.1 60% 26 76.4 1018.3
13 21:51 W 11 16.09 Fair CLR 26.1 16.1 54% 27 76.38 1018.1
13 20:51 W 9 16.09 A Few Clouds FEW055 26.7 17.2 56% 27 76.38 1017.9
13 19:51 W 13 16.09 A Few Clouds FEW055 FEW110 FEW250 28.9 16.7 32.8 28.9 48% 29 76.38 1017.9
13 18:51 W 17 16.09 A Few Clouds FEW055 FEW110 FEW250 30.6 16.7 43% 31 76.35 1017.6
13 17:51 W 17 16.09 A Few Clouds FEW050 FEW110 FEW250 31.7 16.7 41% 32 76.33 1017.3
13 16:51 W 26 16.09 A Few Clouds FEW050 FEW110 FEW250 32.2 16.1 38% 32 76.33 1017.4
13 15:51 W 17 16.09 Mostly Cloudy FEW050 BKN110 32.2 18.3 44% 33 76.35 1017.7
13 14:51 Vrbl 7 16.09 Mostly Cloudy SCT047 SCT075 BKN100 BKN250 32.2 19.4 47% 34 76.35 1017.8
13 13:51 S 11 16.09 Mostly Cloudy BKN050 BKN110 BKN250 30.6 18.9 32.2 25.6 50% 32 76.4 1018.4
13 12:51 W 9 16.09 Mostly Cloudy BKN042 BKN065 BKN250 31.1 19.4 50% 33 76.48 1019.2
13 11:51 SE 7 16.09 Mostly Cloudy SCT044 SCT070 BKN250 30.6 19.4 51% 32 76.53 1019.9
13 10:51 SW 9 16.09 Mostly Cloudy FEW040 FEW070 FEW120 BKN250 28.9 18.9 55% 30 76.56 1020.3
13 09:51 Calm 16.09 Partly Cloudy FEW035 FEW110 SCT250 27.2 18.3 58% 28 76.58 1020.5
13 08:51 S 6 16.09 A Few Clouds FEW050 FEW110 FEW250 26.7 17.8 58% 28 76.61 1020.9
13 07:51 SW 7 16.09 A Few Clouds FEW040 FEW100 FEW120 25.6 18.9 25.6 21.1 67% 27 76.63 1021.4
13 06:51 Calm 16.09 A Few Clouds FEW040 FEW090 FEW120 23.3 20 82% 76.63 1021.5
13 05:51 SW 7 16.09 Partly Cloudy FEW028 SCT080 21.7 18.9 84% 76.61 1021.2
13 04:51 S 6 16.09 Mostly Cloudy FEW028 FEW090 BKN140 22.2 19.4 84% 76.58 1020.7
13 03:51 Calm 16.09 Mostly Cloudy FEW095 BKN130 22.8 19.4 81% 76.56 1020.4
13 02:51 Calm 16.09 A Few Clouds FEW070 23.9 19.4 76% 24 76.53 1020.1
13 01:51 S 7 16.09 Mostly Cloudy FEW090 FEW120 BKN160 24.4 20 27.8 24.4 77% 25 76.58 1020.6
13 00:51 S 9 16.09 Mostly Cloudy FEW065 BKN130 25.6 20 71% 27 76.56 1020.3
12 23:51 S 6 16.09 Overcast BKN080 OVC095 26.1 21.1 74% 28 76.58 1020.7
12 22:51 Calm 16.09 Overcast BKN085 OVC110 26.7 20.6 69% 28 76.58 1020.7
12 21:51 W 6 16.09 Mostly Cloudy SCT090 BKN150 26.1 20.6 72% 28 76.58 1020.8
12 20:51 Calm 16.09 Mostly Cloudy BKN055 BKN200 27.2 20 65% 29 76.56 1020.3
12 19:51 Calm 16.09 Mostly Cloudy FEW070 BKN160 BKN250 27.2 20 29.4 27.2 65% 29 76.53 1020.2
12 18:51 NW 6 16.09 Mostly Cloudy BKN080 BKN180 BKN250 28.9 19.4 57% 30 76.5 1019.8
12 17:51 SW 6 16.09 Mostly Cloudy BKN070 BKN090 BKN250 28.9 19.4 57% 30 76.5 1019.8
12 16:51 E 6 16.09 Mostly Cloudy FEW049 SCT070 BKN200 BKN250 28.9 19.4 57% 30 76.5 1019.8
12 15:51 S 7 16.09 Mostly Cloudy SCT038 SCT047 BKN150 BKN200 28.3 18.9 57% 30 76.56 1020.5
12 14:51 Vrbl 6 16.09 Mostly Cloudy SCT039 BKN049 BKN060 BKN250 28.3 19.4 59% 30 76.58 1020.8
12 13:51 S 9 16.09 Mostly Cloudy SCT033 BKN048 BKN060 BKN250 27.8 18.9 28.3 23.3 58% 29 76.61 1021.2
12 12:51 Vrbl 7 16.09 Mostly Cloudy SCT036 BKN065 BKN080 BKN250 27.8 18.9 58% 29 76.63 1021.3
12 11:51 Vrbl 6 16.09 Mostly Cloudy FEW028 BKN033 BKN060 BKN250 27.2 18.3 58% 28 76.63 1021.5
12 10:51 Vrbl 6 16.09 Mostly Cloudy FEW025 BKN030 BKN060 BKN250 26.7 18.3 60% 28 76.58 1020.8
12 09:51 Calm 16.09 Mostly Cloudy FEW024 BKN032 BKN060 25 18.3 66% 26 76.63 1021.5
12 08:51 W 7 16.09 Mostly Cloudy FEW020 BKN032 BKN070 24.4 18.9 72% 25 76.63 1021.5
12 07:51 W 7 16.09 Mostly Cloudy FEW015 BKN032 BKN070 23.3 18.9 23.9 22.8 76% 76.61 1021.1
12 06:51 Calm 16.09 Overcast OVC033 23.3 18.3 74% 76.53 1020.3
Date Time (edt) Wind (kph) Vis. (km) Weather Sky Cond. Air Dwpt Max. Min. Relative Humidity Wind Chill (°C) Heat Index (°C) altimeter (cm) sea level (mb) 1 hr 3 hr 6 hr
6 hour
Temperature (ºC) Pressure Precipitation (cm)